Location: Shepherdstown, WV
(39.4326°N, 77.8042°W)
Time: 17:53:32
(UTC-04:00)

Vanguard 3 - Pass Details

Date: 27 July 2021
Orbit: 510 x 3260 km, 33.3° (Epoch: 18 September)

Event Time Altitude Azimuth Distance (km) Brightness Sun altitude
Rises 22:04:03 0° 260° (W) 6,630 12.4 -16.2°
Reaches altitude 10° 22:08:06 10° 258° (WSW) 5,837 12.0 -16.7°
Maximum altitude 22:27:27 73° 179° (S) 3,334 10.0 -19.4°
Enters shadow 22:44:49 11° 100° (E) 5,335 10.9 -21.6°
